Date String (YYYY-MM-DD hh:mm:ss) UTC,Instrument flags,absolute air pressure of the measurement (hPa),sample flow rate (lpm),inlet stack bypass flow (lpm),air temperature of the measurement (°C),ambient temperature measured by the external sensor (°C),aerosol sample conditioner tube jacket temperature (°C),OPC LED temperature (°C),internal box temperature (°C),relative humidity of the measurement (%),span deviation,mass concentration of particles derived from Lorenz-Mie calculation of OPC scattering (μg/m³),mass concentration of particles derived from Lorenz-Mie calculation of OPC scattering (μg/m³),mass concentration of particles derived from Lorenz-Mie calculation of OPC scattering (μg/m³)
DateTimeUTC,F1_M11,P_M11,Q1_M11,Q2_M11,T1_M11,T2_M11,T3_M11,T4_M11,T5_M11,U1_M11,ZSPAN_M11,X0_M11,X2_M11,X1_M11
2023-08-16 18:00:00,SystemResetWarning,0832.9,4.98,000.00,028.6,025.9,000.0,036.8,030.0,23.3,0000.0,0008.15,0004.19,0003.76
2023-08-16 18:01:00,SystemResetWarning,0832.9,5.01,000.00,028.5,024.8,000.0,036.7,029.8,23.2,0000.0,0007.91,0004.18,0003.76
2023-08-16 18:02:00,SystemResetWarning,0832.9,5.01,000.00,028.5,025.1,000.0,036.6,029.8,23.2,0000.0,0007.51,0004.20,0003.77
2023-08-16 18:03:00,SystemResetWarning,0832.9,4.99,000.00,028.4,025.4,000.0,036.7,029.8,23.2,0000.0,0007.20,0004.23,0003.77
2023-08-16 18:04:00,SystemResetWarning,0832.9,4.99,000.00,028.4,025.9,000.0,036.7,030.0,23.4,0000.0,0007.26,0004.26,0003.78
2023-08-16 18:05:00,SystemResetWarning,0832.9,5.01,000.00,028.5,026.3,000.0,036.7,030.1,23.8,0000.0,0007.39,0004.29,0003.78
2023-08-16 18:06:00,SystemResetWarning,0833.2,5.00,000.00,028.5,026.7,000.0,036.8,030.2,23.6,0000.0,0007.40,0004.30,0003.78
2023-08-16 18:07:00,SystemResetWarning,0833.2,5.00,000.00,028.6,026.9,000.0,036.8,030.3,23.8,0000.0,0007.47,0004.32,0003.79
2023-08-16 18:08:00,SystemResetWarning,0833.1,4.98,000.00,028.6,025.8,000.0,036.7,030.0,24.6,0000.0,0007.48,0004.33,0003.79
2023-08-16 18:09:00,SystemResetWarning,0832.8,5.00,000.00,028.5,024.7,000.0,036.6,029.8,25.5,0000.0,0007.37,0004.31,0003.78
2023-08-16 18:10:00,SystemResetWarning,0832.8,5.02,000.00,028.4,025.0,000.0,036.6,029.8,24.3,0000.0,0007.43,0004.31,0003.78
2023-08-16 18:11:00,SystemResetWarning,0832.8,5.01,000.00,028.4,025.3,000.0,036.6,029.8,23.7,0000.0,0007.53,0004.28,0003.78
2023-08-16 18:12:00,SystemResetWarning,0832.8,4.99,000.00,028.4,025.8,000.0,036.7,029.9,24.0,0000.0,0007.65,0004.24,0003.78
2023-08-16 18:13:00,SystemResetWarning,0832.8,5.00,000.00,028.4,026.2,000.0,036.7,030.1,23.5,0000.0,0007.57,0004.21,0003.78
2023-08-16 18:14:00,SystemResetWarning,0832.8,5.01,000.00,028.5,026.6,000.0,036.7,030.2,24.1,0000.0,0007.51,0004.18,0003.77
2023-08-16 18:15:00,SystemResetWarning,0832.7,5.00,000.00,028.5,027.0,000.0,036.8,030.3,25.0,0000.0,0007.50,0004.20,0003.79
2023-08-16 18:16:00,SystemResetWarning,0832.7,4.99,000.00,028.6,026.6,000.0,036.8,030.2,25.1,0000.0,0007.63,0004.19,0003.79
2023-08-16 18:17:00,SystemResetWarning,0832.7,5.00,000.00,028.5,025.2,000.0,036.7,029.9,25.5,0000.0,0007.69,0004.18,0003.80
2023-08-16 18:18:00,SystemResetWarning,0832.7,5.02,000.00,028.5,025.0,000.0,036.6,029.9,24.6,0000.0,0007.62,0004.16,0003.80
2023-08-16 18:19:00,SystemResetWarning,0832.6,5.00,000.00,028.4,025.3,000.0,036.6,029.9,24.8,0000.0,0007.66,0004.17,0003.80
2023-08-16 18:20:00,SystemResetWarning,0832.6,5.00,000.00,028.4,025.7,000.0,036.7,029.9,25.6,0000.0,0007.68,0004.20,0003.81
2023-08-16 18:21:00,SystemResetWarning,0832.6,5.00,000.00,028.4,026.1,000.0,036.7,030.1,25.1,0000.0,0007.97,0004.21,0003.81
2023-08-16 18:22:00,SystemResetWarning,0832.6,5.00,000.00,028.5,026.5,000.0,036.7,030.2,26.6,0000.0,0007.88,0004.21,0003.81
2023-08-16 18:23:00,SystemResetWarning,0832.6,4.99,000.00,028.6,026.9,000.0,036.8,030.3,26.0,0000.0,0007.76,0004.20,0003.82
2023-08-16 18:24:00,SystemResetWarning,0832.6,4.99,000.00,028.6,026.7,000.0,036.7,030.2,26.1,0000.0,0007.73,0004.18,0003.81
2023-08-16 18:25:00,SystemResetWarning,0832.6,5.00,000.00,028.5,025.3,000.0,036.7,029.9,25.4,0000.0,0007.78,0004.19,0003.81
2023-08-16 18:26:00,SystemResetWarning,0832.5,5.01,000.00,028.5,025.0,000.0,036.6,029.8,24.2,0000.0,0007.89,0004.21,0003.80
2023-08-16 18:27:00,SystemResetWarning,0832.5,5.01,000.00,028.4,025.4,000.0,036.6,029.8,24.2,0000.0,0007.78,0004.23,0003.79
2023-08-16 18:28:00,SystemResetWarning,0832.5,4.99,000.00,028.4,025.8,000.0,036.7,029.9,24.0,0000.0,0007.62,0004.21,0003.78
2023-08-16 18:29:00,SystemResetWarning,0832.6,5.00,000.00,028.5,026.2,000.0,036.7,030.0,23.7,0000.0,0007.60,0004.21,0003.78
2023-08-16 18:30:00,SystemResetWarning,0832.5,5.00,000.00,028.5,026.7,000.0,036.7,030.2,24.2,0000.0,0007.67,0004.20,0003.78
2023-08-16 18:31:00,SystemResetWarning,0832.5,5.00,000.00,028.6,027.0,000.0,036.8,030.3,23.9,0000.0,0008.38,0004.20,0003.77
2023-08-16 18:32:00,SystemResetWarning,0832.5,4.99,000.00,028.6,027.4,000.0,036.8,030.4,25.0,0000.0,0008.47,0004.21,0003.78
2023-08-16 18:33:00,SystemResetWarning,0832.5,5.00,000.00,028.7,027.2,000.0,036.8,030.3,25.3,0000.0,0008.33,0004.23,0003.77
2023-08-16 18:34:00,SystemResetWarning,0832.5,4.99,000.00,028.6,025.8,000.0,036.7,029.9,24.4,0000.0,0008.32,0004.25,0003.77
2023-08-16 18:35:00,SystemResetWarning,0832.4,5.02,000.00,028.6,025.3,000.0,036.7,029.9,24.4,0000.0,0008.64,0004.30,0003.78
2023-08-16 18:36:00,SystemResetWarning,0832.5,5.00,000.00,028.6,025.7,000.0,036.7,030.0,24.4,0000.0,0009.13,0004.36,0003.79
2023-08-16 18:37:00,SystemResetWarning,0832.5,4.99,000.00,028.5,026.1,000.0,036.7,030.0,23.4,0000.0,0009.78,0004.33,0003.79
2023-08-16 18:38:00,SystemResetWarning,0832.5,5.01,000.00,028.6,026.5,000.0,036.8,030.2,23.2,0000.0,0010.15,0004.28,0003.78
2023-08-16 18:39:00,SystemResetWarning,0832.5,5.00,000.00,028.6,026.8,000.0,036.8,030.3,23.2,0000.0,0010.56,0004.28,0003.78
2023-08-16 18:40:00,SystemResetWarning,0832.5,4.99,000.00,028.7,027.1,000.0,036.8,030.4,23.4,0000.0,0010.94,0004.29,0003.78
2023-08-16 18:41:00,SystemResetWarning,0832.5,4.99,000.00,028.7,026.1,000.0,036.8,030.2,23.8,0000.0,0011.44,0004.31,0003.78
2023-08-16 18:42:00,SystemResetWarning,0832.5,5.02,000.00,028.6,025.0,000.0,036.7,029.9,23.9,0000.0,0010.74,0004.30,0003.77
2023-08-16 18:43:00,SystemResetWarning,0832.5,5.01,000.00,028.5,025.2,000.0,036.7,029.9,23.3,0000.0,0010.52,0004.28,0003.77
2023-08-16 18:44:00,SystemResetWarning,0832.6,5.00,000.00,028.5,025.6,000.0,036.7,030.0,23.4,0000.0,0010.76,0004.26,0003.76
2023-08-16 18:45:00,SystemResetWarning,0832.5,5.00,000.00,028.5,026.0,000.0,036.8,030.1,23.6,0000.0,0010.92,0004.27,0003.75
2023-08-16 18:46:00,SystemResetWarning,0832.6,5.00,000.00,028.5,026.4,000.0,036.8,030.2,23.4,0000.0,0010.95,0004.24,0003.75
2023-08-16 18:47:00,SystemResetWarning,0832.6,5.00,000.00,028.6,026.8,000.0,036.8,030.3,23.9,0000.0,0010.58,0004.18,0003.74
2023-08-16 18:48:00,SystemResetWarning,0832.5,5.00,000.00,028.6,026.7,000.0,036.8,030.2,24.0,0000.0,0009.76,0004.16,0003.73
2023-08-16 18:49:00,SystemResetWarning,0832.5,4.98,000.00,028.6,025.3,000.0,036.7,030.0,23.7,0000.0,0009.39,0004.19,0003.74
2023-08-16 18:50:00,SystemResetWarning,0832.5,5.02,000.00,028.5,025.0,000.0,036.6,029.9,25.0,0000.0,0009.19,0004.22,0003.75
2023-08-16 18:51:00,SystemResetWarning,0832.4,5.00,000.00,028.5,025.4,000.0,036.7,029.9,24.8,0000.0,0009.18,0004.22,0003.74
2023-08-16 18:52:00,SystemResetWarning,0832.4,4.99,000.00,028.5,025.8,000.0,036.7,029.9,24.3,0000.0,0008.71,0004.19,0003.73
2023-08-16 18:53:00,SystemResetWarning,0832.4,5.01,000.00,028.5,026.2,000.0,036.8,030.1,24.1,0000.0,0009.28,0004.22,0003.74
2023-08-16 18:54:00,SystemResetWarning,0832.4,5.01,000.00,028.6,026.6,000.0,036.8,030.2,23.5,0000.0,0009.32,0004.24,0003.74
2023-08-16 18:55:00,SystemResetWarning,0832.4,4.99,000.00,028.6,026.9,000.0,036.8,030.3,24.0,0000.0,0009.15,0004.25,0003.74
2023-08-16 18:56:00,SystemResetWarning,0832.3,4.98,000.00,028.6,025.9,000.0,036.7,030.0,24.1,0000.0,0009.11,0004.23,0003.74
2023-08-16 18:57:00,SystemResetWarning,0832.3,5.01,000.00,028.5,024.9,000.0,036.6,029.9,24.5,0000.0,0008.97,0004.23,0003.73
2023-08-16 18:58:00,SystemResetWarning,0832.3,5.01,000.00,028.5,025.2,000.0,036.6,029.9,23.6,0000.0,0009.00,0004.21,0003.72
2023-08-16 18:59:00,SystemResetWarning,0832.3,4.99,000.00,028.4,025.6,000.0,036.7,029.9,22.9,0000.0,0009.16,0004.21,0003.72
